Airfield :
LOGIN :

Register | Disclaimer

   EN    FR    IT 

 










Legend :    VFR   Marginal VFR   IFR   Intensive IFR   Very Intensive IFR
Visi :
Ceiling :
>= 8 km
>= 3000ft
5 to 8 km
1000 to 3000 ft
1500m to 5 km
500 to 1000 ft
800 to 1500m
200 to 500 ft
< 800m
< 200 ft
Symbols :   Thunderstorms  Fog  Heavy snow  Heavy precipitations  Wind > 20 kt
SIGMETs :     Misc.  Thunderstorms  Icing  Turbulence  Mountain Waves  Volcanic Ashes







- Airport Elevation : 699 ft
- IATA code : PAD


EDLP - Paderborn Lippstadt

CURRENT METAR :
  • 142220Z 26003KT 210V310 9999 SCT033 BKN060 18/12 Q1018

EXPIRED METARs :
  • 142150Z 25003KT 220V290 9999 BKN033 18/12 Q1018
  • 142120Z VRB02KT 9999 BKN038 18/12 Q1018
  • 142050Z 27003KT 9999 BKN038 19/12 Q1017
  • 142020Z 27003KT 230V310 9999 SCT045 19/12 Q1017
  • 141950Z VRB02KT 9999 FEW045 18/12 Q1017

TAF TAF EDLP
Valid from the 14 at 18:00 until the 15 at 18:00 UTC


141700Z 1418/1518 26006KT 9999 BKN045
No reported NOTAMs for that airfield.



MET'MAP, your aeronautical weather chart ! - Copyright ORBIFLY December 2007 - Disclaimer

ORBIFLY MET'MAP TEAM :

Programming & Development : Alexandra Zaïnal
Concept & Development : Baudouin d'Aumeries
Co-Development & Prog : Marc-Olivier Méhu
Technical & hardware support : Manuel Goepfert

Contact : metmap@orbifly.com




SOURCES & CREDITS :

   NOAA